Погода в Бриге

Швейцария     46°18′56″N   7°59′16″E
темп.,
°C
ветер,
м/с
пор.,
м/с
влажн.,
%
обл.,
%
осадки,
мм/ч
давл.,
гПа
погр.,
м
4 марта, чт
чт401:00−5зюз125069 0.0 102821
04:00−5з225274 0.0 102621
07:00−6з225670 0.0 102521
10:000зсз228485 0.0 1023142
13:000з1110067 0.0 1021160
16:00−1зсз1210074 0.1 1019167
19:00−5з228985 0.1 101926
22:00−6з229182 0.0 102021
5 марта, пт
пт501:00−7з229474 0.1 102021
04:00−5з229686 0.3 101935
07:00−6зсз229685 0.6 101947
10:00−2зсз339192 0.1 1019431
13:00−1зсз229484 0.2 1018539
16:00−1зсз338932 0.3 1018509
19:00−7зсз229239 0.4 102021
22:00−9зсз128637 0.0 102321
6 марта, сб
сб601:00−9ююз126819 0.0 102421
04:00−9ю23786 0.0 102422
07:00−9ююв238012 0.0 102624
10:00−3вюв338819 0.1 1026350
13:00−2вюв339728 0.4 1026454
16:00−3вюв339278 0.3 1026307
19:00−8юв229478 0.5 102722
22:00−8ююв228768 0.1 102831
7 марта, вс
вс701:00−8ююв128453 0.1 102823
04:00−10ю118122 0.0 102721
07:00−10юз117611 0.0 102621
10:00−4сз01750 0.0 1025265
13:00−2сз11953 0.1 1022342
16:00−2сз128658 0.2 1020449
19:00−7зсз129466 0.4 102121
22:00−7з129078 0.1 102221
8 марта, пн
пн801:00−9з228970 0.1 102121
04:00−9з228945 0.0 102021
07:00−10з228634 0.0 102121
10:00−4зсз228112 0.0 1020317
13:00−3ссв00868 0.0 1019403
16:00−2с117651 0.1 1018504
19:00−8зюз019035 0.3 102021
22:00−8ююз128449 0.0 102221